Regional Weather Roundup
Issued by NWS

Home | Current Version | Previous Version | Graphics & Text | Print | Product List | Glossary Off
Versions: 1 2 3 4 5 6 7 8 9 10 11 12 13 14 15 16 17 18 19 20 21 22 23 24 25 26 27 28 29 30 31 32 33 34 35 36 37 38 39 40 41 42 43 44 45 46 47 48 49 50

000
ASUS43 KMKX 181359
RWRWI

WISCONSIN REGIONAL WEATHER ROUNDUP
NATIONAL WEATHER SERVICE MILWAUKEE/SULLIVAN WI
800 AM CST MON DEC 18 2017

NOTE: "FAIR" INDICATES FEW OR NO CLOUDS BELOW 12,000 FEET WITH NO
SIGNIFICANT WEATHER AND/OR OBSTRUCTIONS TO VISIBILITY.

WIZ001-002-006>008-014>016-023>028-181500-
NORTHWEST WISCONSIN

CITY           SKY/WX    TMP DP  RH WIND       PRES   REMARKS
SUPERIOR ARPT  CLOUDY    25  23  91 SW5       29.73F FOG     WCI  20
ASHLAND        CLOUDY    27  23  85 SW8       29.74F FOG     WCI  19
HAYWARD        CLOUDY    26  23  88 S8        29.76F FOG     WCI  18
SIREN          CLOUDY    26  24  94 S6        29.77F FOG     WCI  19
CUMBERLAND     CLOUDY    25  23  93 S6        29.79F FOG     WCI  18
RICE LAKE      CLOUDY    26  26  99 CALM      29.82F FOG
CHETEK         CLOUDY    26  26  99 S7        29.82F WCI  18
LADYSMITH      CLOUDY    26  25  97 S7        29.83S FOG     WCI  18
EAU CLAIRE     NOT AVBL
MENOMONIE      CLOUDY    27  26  94 S5        29.84S FOG     WCI  22
NEW RICHMOND   PTCLDY    25  25  98 S8        29.81S FOG     WCI  17
OSCEOLA        CLOUDY    27  27 100 S8        29.83F FOG     WCI  18
$$

WIZ003>005-009-010-017-018-181500-
NORTH CENTRAL WISCONSIN

CITY           SKY/WX    TMP DP  RH WIND       PRES   REMARKS
MANITOWISH WTR CLOUDY    25  25 100 SW5       29.75F FOG     WCI  19
ARBOR VITAE    CLOUDY    27  26  96 SW5       29.76F FOG     WCI  21
WOODRUFF       CLOUDY    27  26  96 SW5       29.76F FOG     WCI  21
RHINELANDER    FOG       26  25  96 SW6       29.78S VSB 1   WCI  19
EAGLE RIVER    CLOUDY    25  25 100 SW8       29.77R FOG     WCI  16
LAND O LAKES   CLOUDY    26  25  99 SW5       29.77S FOG     WCI  20
PHILLIPS       CLOUDY    25  25 100 SW6       29.78S FOG     WCI  18
TOMAHAWK       CLOUDY    25  24  96 CALM      29.79F FOG
MEDFORD        FOG       25  24  96 SW6       29.80S VSB 1/4 WCI  18
MERRILL        CLOUDY    26  26 100 SW6       29.81F FOG     WCI  20
$$

WIZ029-030-035-036-043>047-181500-
CENTRAL WISCONSIN

CITY           SKY/WX    TMP DP  RH WIND       PRES   REMARKS
WAUSAU         CLOUDY    26  26 100 W5        29.80F FOG     WCI  20
MOSINEE        CLOUDY    27  27 100 W6        29.83S FOG     WCI  20
MARSHFIELD     FOG       28  28 100 SW9       29.81F VSB 1/4 WCI  19
STEVENS POINT  FOG       27  27 100 SW6       29.84S VSB 3/4 WCI  20
WAUPACA        CLOUDY    31  29  92 SW7       29.86S FOG     WCI  24
WAUTOMA        CLOUDY    30  28  92 SW6       29.87S FOG     WCI  24
WISC RAPIDS    CLOUDY    28  27  96 SW6       29.86F FOG     WCI  22
CAMP DOUGLAS   NOT AVBL
$$

WIZ011>013-019>022-031-037>040-048>050-181500-
NORTHEAST WISCONSIN

CITY           SKY/WX    TMP DP  RH WIND       PRES   REMARKS
ANTIGO         FOG       25  25 100 W6        29.80S VSB 3/4 WCI  18
SHAWANO        CLOUDY    30  29  94 SW5       29.84S FOG     WCI  25
OCONTO         CLOUDY    28  27  96 W7        29.85R WCI  20
STURGEON BAY   CLOUDY    29  27  92 W9        29.85R FOG     WCI  20
GREEN BAY      CLOUDY    30  28  92 W6        29.84F FOG     WCI  24
MANITOWOC      CLOUDY    31  29  92 SW6       29.87R FOG     WCI  25
APPLETON       CLOUDY    30  28  93 SW8       29.84R FOG     WCI  23
CLINTONVILLE   CLOUDY    28  28 100 SW5       29.84F FOG     WCI  23
OSHKOSH        CLOUDY    31  29  92 W8        29.86R FOG     WCI  23
$$

WIZ032>034-041-042-053>061-181500-
SOUTHWEST WISCONSIN

CITY           SKY/WX    TMP DP  RH WIND       PRES   REMARKS
LA CROSSE      CLOUDY    31  28  89 SW8       29.89S FOG     WCI  23
SPARTA         CLOUDY    29  28  98 CALM      29.88S FOG
VIROQUA        CLOUDY    30  30 100 CALM      29.86S
BOSCOBEL       CLOUDY    33  29  85 SW8       29.92S FOG     WCI  26
PRAIRIE DU CHI CLOUDY    32  27  83 SW5       29.92S WCI  27
PLATTEVILLE    CLOUDY    32  32 100 W10       29.91S WCI  23
$$

WIZ056-057-062-063-064-067-068-181500-
SOUTH CENTRAL WISCONSIN

CITY           SKY/WX    TMP DP  RH WIND       PRES   REMARKS
REEDSBURG      CLOUDY    32  31  98 SW8       29.88S FOG     WCI  24
BARABOO/DELLS  CLOUDY    31  29  93 W6        29.87S FOG     WCI  25
LONE ROCK      NOT AVBL
MINERAL POINT  CLOUDY    32  32 100 W9        29.88F FOG     WCI  24
MADISON        CLOUDY    33  31  92 VRB5      29.89S FOG     WCI  29
MIDDLETON      CLOUDY    34  32  93 W7        29.89S WCI  28
WATERTOWN      CLOUDY    32  32 100 SW5       29.88F FOG     WCI  27
MONROE         CLOUDY    34  32  93 SW10      29.89S FOG     WCI  26
JANESVILLE     CLOUDY    36  36 100 W8        29.90S FOG     WCI  29
$$

WIZ051-052-058>065-066-070>072-181500-
SOUTHEAST WISCONSIN

CITY           SKY/WX    TMP DP  RH WIND       PRES   REMARKS
MILWAUKEE      FOG       36  36 100 W6        29.90R VSB 1/2 WCI  31
WAUKESHA       FOG       32  32 100 W5        29.90R VSB 3/4 WCI  27
MILWAUKEE/TIMM CLOUDY    34  32  93 SW7       29.89S FOG     WCI  28
RACINE         CLOUDY    38  37  97 W8        29.91S FOG     WCI  32
BURLINGTON     CLOUDY    49  49 100 W6        29.90S FOG
KENOSHA        CLOUDY    39  37  92 W12       29.90R FOG     WCI  32
FOND DU LAC    CLOUDY    32  30  92 SW6       29.86S FOG     WCI  26
SHEBOYGAN      FOG       31  31 100 SW7       29.86F VSB 1/2 WCI  24
WEST BEND      CLOUDY    32  32 100 CALM      29.86F FOG
JUNEAU         CLOUDY    31  31  99 SW9       29.89S FOG     WCI  23
$$

LSZ147-162-181500-
LAKE SUPERIOR

STATION/POSITION TIME  TEMP    WIND        PRES    WAVE
                       AIR SEA DIR/SP/G            HT/PER
                 (UTC) (F)     (DEG/KT/KT) (MB)    (FT/S)
DEVILS ISLAND    1300   28     180/  7/ 10 1008.1F
SAXON HARBOR     1340   29                 1006.8F
$$

LMZ867-665-643>646-181500-
LAKE MICHIGAN

STATION/POSITION TIME  TEMP    WIND        PRES    WAVE
                       AIR SEA DIR/SP/G            HT/PER
                 (UTC) (F)     (DEG/KT/KT) (MB)    (FT/S)
NORTHPORT PIER   1340   29      CALM  /  6 1010.2F
KEWAUNEE LAKESHO 1330   30     210/  4/  7 1010.1F
SHEBOYGAN LAKESH 1300   31     190/  5/  5 1012.1F
PORT WASHINGTON  1340   33     220/  3/  4 1012.9F
MILWAUKEE LAKESH 1330   36     260/  7/  8   N/A
KENOSHA   LAKESH 1300   39     240/  7/ 11 1012.9
$$

TC  - TEMPERATURE IN CELSIUS
VSB - VISIBILITY IN STATUTE MILES
WCI - WIND CHILL INDEX
HX  - HEAT INDEX





USA.gov is the U.S. government's official web portal to all federal, state and local government web resources and services.